[[[{"header":{"parameterUnit":"kt","parameterCategory":2,"dx":1,"dy":1,"la1":30.253999710083008,"la2":30.299108505249023,"lo1":-89.0895004272461,"lo2":-89.04439544677734,"nx":28,"ny":28,"refTime":"2022-09-28T21:00:00:Z","depth":0,"parameterNumber":1,"parameterNumberName":"U-component_of_WINDS"},"data":[-4.3589,-4.3782,-4.377,-4.3985,-4.4011,-4.4156,-4.4204,-4.4264,-4.4309,-4.4479,-4.4575,-4.4582,-4.4623,-4.4734,-4.4836,-4.4837,-4.4884,-4.4959,-4.4949,-4.4617,-4.4571,-4.4527,-4.4482,-4.4968,-4.4969,-4.5295,-4.5298,-4.53,-4.3344,-4.3372,-4.3482,-4.3581,-4.3675,-4.3594,-4.3666,-4.375,-4.3882,-4.3939,-4.4032,-4.4181,-4.4297,-4.4312,-4.4422,-4.4511,-4.4481,-4.4542,-4.4538,-4.4546,-4.419,-4.4143,-4.4565,-4.4565,-4.4565,-4.4565,-4.4565,-4.4564,-4.2897,-4.3013,-4.3067,-4.3186,-4.3232,-4.3299,-4.3407,-4.3414,-4.3521,-4.3635,-4.3599,-4.3748,-4.3803,-4.3929,-4.3969,-4.4084,-4.4014,-4.4079,-4.4096,-4.4114,-4.4136,-4.3673,-4.4101,-4.41,-4.4099,-4.4098,-4.4097,0,-4.2567,-4.255,-4.2655,-4.2757,-4.2843,-4.2921,-4.299,-4.3057,-4.3015,-4.3106,-4.3236,-4.3309,-4.3453,-4.3575,-4.3675,-4.3703,-4.3632,-4.3621,-4.3666,-4.369,-4.3696,-4.3699,-4.3124,-4.3611,-4.3607,-4.3604,-4.3601,-4.36,-4.2119,-4.2255,-4.2305,-4.2381,-4.2416,-4.2538,-4.2609,-4.2562,-4.2639,-4.2717,-4.2822,-4.2942,-4.3037,-4.3247,-4.3255,-4.3363,-4.333,-4.3518,-4.3346,-4.336,-4.3338,-4.3333,-4.3347,-4.3555,-4.356,-4.3565,-4.3569,0,-4.1868,-4.1849,-4.2056,-4.2093,-4.2106,-4.2251,-4.2282,-4.2396,-4.239,-4.2546,-4.258,-4.2572,-4.2701,-4.2678,-4.282,-4.2805,-4.3045,-4.3007,-4.3025,-4.3018,-4.3187,-4.3173,-4.3732,-4.3804,-4.3294,-4.3299,-4.3303,0,-4.1481,-4.1662,-4.1623,-4.1745,-4.1943,-4.1892,-4.209,-4.2105,-4.2151,-4.2274,-4.2187,-4.2304,-4.2256,-4.2369,-4.2346,-4.2537,-4.2563,-4.2564,-4.2557,-4.2576,-4.2576,-4.2621,-4.26,-4.253,-4.2527,-4.2525,-4.2523,0,-4.1095,-4.1285,-4.1481,-4.1522,-4.158,-4.1673,-4.1701,-4.1753,-4.1824,-4.191,-4.1955,-4.2059,-4.2118,-4.22,-4.2171,-4.2055,-4.2402,-4.2238,-4.2404,-4.2406,-4.2488,-4.2484,-4.2978,-4.2519,-4.2518,-4.2518,-4.2517,0,-4.0782,-4.087,-4.1157,-4.1203,-4.1255,-4.1384,-4.1484,-4.1589,-4.165,-4.1644,-4.1712,-4.1654,-4.1816,-4.1655,-4.188,-4.1739,-4.1801,-4.1816,-4.1827,-4.1846,-4.1668,-4.1956,-4.2425,-4.2476,-4.1855,-4.1849,-4.1844,0,-4.0347,-4.0631,-4.059,-4.0864,-4.0992,-4.0887,-4.1029,-4.1086,-4.109,-4.1199,-4.1202,-4.1329,-4.1203,-4.124,-4.1353,-4.1364,-4.1547,-4.1337,-4.15,-4.1507,-4.1492,-4.1921,-4.2,-4.2323,-4.1773,-4.1781,-4.1786,0,-4.0009,-4.0078,-4.013,-4.0175,-4.0242,-4.0349,-4.0512,-4.0625,-4.0701,-4.0773,-4.0911,-4.1085,-4.0998,-4.106,-4.1024,-4.1144,-4.1421,-4.1036,-4.1037,-4.111,-4.1735,-4.1808,-4.1863,-4.137,-4.1379,-4.1386,-4.173,0,-3.9546,-3.9685,-3.9823,-3.9925,-4.0004,-4.0173,-4.015,-4.0235,-4.0192,-4.0194,-4.0393,-4.0435,-4.0553,-4.0607,-4.0567,-4.0847,-4.0798,-4.0705,-4.0552,-4.0832,-4.0945,-4.0991,-4.0384,-4.038,-4.0376,-4.0373,0,0,-3.9138,-3.9337,-3.9288,-3.9445,-3.9509,-3.9399,-3.9583,-3.9632,-3.9736,-3.9783,-3.9696,-3.995,-3.999,-4.0236,-4.0321,-4.0367,-4.0416,-4.032,-4.0698,-4.0734,-4.0768,-4.0889,-4.0937,-4.0366,-4.0364,-4.0363,-4.0362,0,-3.8965,-3.9005,-3.9187,-3.9235,-3.9306,-3.9298,-3.9341,-3.9393,-3.9402,-3.9597,-3.9507,-3.9623,-3.9829,-3.9883,-3.9938,-4.0288,-4.0216,-4.0324,-4.0522,-4.0659,-4.07,-4.0737,-4.0865,-4.0911,-4.0352,-4.0353,-4.0353,0,-3.8632,-3.8668,-3.8753,-3.8892,-3.8938,-3.9073,-3.8905,-3.9054,-3.9154,-3.903,-3.9226,-3.9247,-3.9318,-3.9552,-3.9656,-3.9581,-4.0034,-3.9886,-3.9911,-3.9924,-4.0055,-4.0105,-4.015,-3.9565,-3.9562,-3.956,0,0,-3.8486,-3.8615,-3.8642,-3.8854,-3.8889,-3.888,-3.895,-3.8915,-3.898,-3.9007,-3.9034,-3.9101,-3.9219,-3.9299,-3.941,-3.9669,-3.9682,-3.979,-3.9827,-3.9858,-3.9888,-4.0027,-4.0077,-3.955,-3.955,-3.9549,0,0,-3.8418,-3.8457,-3.8402,-3.8645,-3.871,-3.8752,-3.8882,-3.8817,-3.8914,-3.8893,-3.8843,-3.8859,-3.9076,-3.9102,-3.897,-3.9356,-3.9203,-3.9234,-3.9332,-3.9379,-3.9415,-3.9407,-3.8808,0,0,0,0,0,-3.8231,-3.8451,-3.8401,-3.8439,-3.8616,-3.8778,-3.8801,-3.8764,-3.8657,-3.8761,-3.8773,-3.869,-3.902,-3.8903,-3.8941,-3.9091,-3.9421,-3.9444,-3.9465,-3.9652,-3.9701,-3.9742,0,0,0,0,0,0,-3.8246,-3.8292,-3.8395,-3.8447,-3.8486,-3.877,-3.8581,-3.8577,-3.8645,-3.8626,-3.869,-3.8692,-3.8664,-3.888,-3.8916,-3.9059,-3.8795,-3.943,-3.9449,-3.9467,-3.9669,-3.9709,-3.9743,0,0,0,0,0,-3.8257,-3.8294,-3.8587,-3.8444,-3.8478,-3.8481,-3.8572,-3.8567,-3.862,-3.864,-3.8638,-3.8586,-3.867,-3.8697,-3.8901,-3.9043,-3.8771,-3.8784,-3.9442,-3.9458,-3.9471,-3.9689,0,0,0,0,0,0,-3.8265,-3.8291,-3.8593,-3.8602,-3.8358,-3.8465,-3.848,-3.856,-3.8628,-3.8629,-3.8532,-3.8516,-3.8676,-3.8696,-3.8717,-3.904,-3.8751,-3.8764,-3.8773,-3.9454,-3.9466,-3.9477,0,0,0,0,0,0,-3.8271,-3.8299,-3.8598,-3.8492,-3.8488,-3.845,-3.8463,-3.8632,-3.863,-3.8516,-3.8505,-3.8524,-3.8644,-3.8696,-3.8712,-3.8977,-3.8735,-3.8748,-3.8757,-3.8763,-3.9464,-3.9473,0,0,0,0,0,0,-3.8282,-3.8307,-3.8489,-3.8487,-3.8483,-3.8582,-3.8598,-3.8782,-3.8538,-3.8514,-3.8515,-3.8505,-3.8647,-3.8662,-3.871,-3.8968,-3.8975,-3.8736,-3.8745,-3.8751,-3.8755,0,0,0,0,0,0,0,-3.8291,-3.8135,-3.8539,-3.8483,-3.8479,-3.8686,-3.8688,-3.8691,-3.8536,-3.8527,-3.8518,-3.8509,-3.8661,-3.8676,-3.869,-3.8961,0,0,-3.8734,-3.8741,0,0,0,0,0,0,0,0,-3.8124,-3.8132,-3.854,-3.8542,-3.8543,-3.8686,-3.8688,-3.869,-3.8534,-3.8527,-3.8519,-3.8513,-3.8665,-3.8677,-3.8688,0,0,0,0,0,0,0,0,0,0,0,0,0,0,0,-3.854,-3.8541,0,-3.8687,-3.8688,-3.869,-3.8533,-3.8527,-3.8521,-3.8515,-3.8668,-3.8678,-3.8687,0,0,0,0,0,0,0,0,0,0,0,0,0,0,0,0,0,0,0,0,0,0,0,0,0,0,0,0,0,0,0,0,0,0,0,0,0,0,0,0,0,0,0,0,0,0,0,0,0,0,0,0,0,0,0,0,0,0,0,0,0,0,0,0,0,0,0,0,0]}],[{"header":{"parameterUnit":"kt","parameterCategory":2,"dx":1,"dy":1,"la1":30.253999710083008,"la2":30.299108505249023,"lo1":-89.0895004272461,"lo2":-89.04439544677734,"nx":28,"ny":28,"refTime":"2022-09-28T21:00:00:Z","depth":0,"parameterNumber":2,"parameterNumberName":"V-component_of_WINDS"},"data":[-15.7511,-15.7778,-15.7772,-15.8071,-15.8114,-15.8315,-15.8384,-15.847,-15.8536,-15.877,-15.8902,-15.8917,-15.8973,-15.9124,-15.9263,-15.9264,-15.9323,-15.9424,-15.9408,-15.897,-15.8908,-15.8849,-15.8786,-15.9438,-15.9438,-15.9863,-15.9867,-15.987,-15.7188,-15.7235,-15.7393,-15.7539,-15.7672,-15.757,-15.7675,-15.7792,-15.7973,-15.8055,-15.8185,-15.8389,-15.8546,-15.8568,-15.8716,-15.8835,-15.8792,-15.8875,-15.8865,-15.8874,-15.8406,-15.834,-15.8907,-15.8907,-15.8907,-15.8907,-15.8907,-15.8906,-15.6597,-15.6759,-15.6843,-15.7013,-15.7084,-15.718,-15.733,-15.7346,-15.7496,-15.7655,-15.7611,-15.7814,-15.789,-15.8062,-15.8115,-15.8269,-15.8173,-15.8259,-15.828,-15.8302,-15.8328,-15.7714,-15.8293,-15.8291,-15.829,-15.8288,-15.8287,0,-15.6161,-15.6144,-15.6294,-15.6443,-15.6566,-15.6678,-15.6779,-15.6871,-15.6824,-15.6949,-15.7129,-15.7229,-15.7425,-15.7588,-15.7723,-15.776,-15.7661,-15.765,-15.7708,-15.7732,-15.7736,-15.7734,-15.6969,-15.7632,-15.7627,-15.7622,-15.7619,-15.7617,-15.5562,-15.5752,-15.5836,-15.5942,-15.5995,-15.6168,-15.6267,-15.6212,-15.6319,-15.6431,-15.6573,-15.6738,-15.6866,-15.715,-15.716,-15.7304,-15.7256,-15.7511,-15.7277,-15.7293,-15.7257,-15.7246,-15.7263,-15.7557,-15.7565,-15.7571,-15.7576,0,-15.5225,-15.5211,-15.5501,-15.5563,-15.5585,-15.5785,-15.5835,-15.5991,-15.5987,-15.6201,-15.6247,-15.6241,-15.6415,-15.6383,-15.6575,-15.6552,-15.6872,-15.6823,-15.6845,-15.6832,-15.7055,-15.7034,-15.7789,-15.7883,-15.721,-15.7216,-15.7221,0,-15.4707,-15.4958,-15.492,-15.509,-15.5365,-15.5303,-15.5576,-15.56,-15.5667,-15.5834,-15.5719,-15.5878,-15.5813,-15.5966,-15.5933,-15.6189,-15.6225,-15.6221,-15.6209,-15.6232,-15.6232,-15.6283,-15.6251,-15.6177,-15.6173,-15.617,-15.6167,0,-15.418,-15.4454,-15.4729,-15.4788,-15.4879,-15.5008,-15.5051,-15.5125,-15.5222,-15.5342,-15.5403,-15.5547,-15.5625,-15.5735,-15.5692,-15.5534,-15.6005,-15.5779,-15.6001,-15.6002,-15.6105,-15.6099,-15.6777,-15.6162,-15.6161,-15.616,-15.6159,0,-15.3757,-15.3887,-15.4289,-15.436,-15.4434,-15.4615,-15.4753,-15.4901,-15.4987,-15.4979,-15.5072,-15.499,-15.5213,-15.4991,-15.5296,-15.5103,-15.5185,-15.5202,-15.5218,-15.5234,-15.4986,-15.537,-15.6021,-15.6087,-15.525,-15.5243,-15.5236,0,-15.3157,-15.3559,-15.351,-15.3893,-15.4074,-15.3932,-15.4131,-15.4211,-15.4217,-15.4367,-15.4371,-15.4543,-15.4371,-15.4419,-15.4575,-15.4584,-15.4835,-15.455,-15.476,-15.4768,-15.4741,-15.534,-15.5444,-15.5883,-15.5139,-15.5149,-15.5156,0,-15.2688,-15.2799,-15.2872,-15.2935,-15.3036,-15.3187,-15.3415,-15.3573,-15.3676,-15.378,-15.3967,-15.4207,-15.4086,-15.4169,-15.4116,-15.428,-15.4663,-15.4127,-15.4128,-15.4223,-15.5088,-15.5185,-15.526,-15.4591,-15.4603,-15.4612,-15.5079,0,-15.2051,-15.225,-15.2445,-15.2593,-15.2704,-15.2943,-15.2913,-15.3033,-15.2973,-15.2973,-15.3248,-15.3305,-15.3462,-15.3538,-15.348,-15.3866,-15.3795,-15.3664,-15.3444,-15.3838,-15.3991,-15.4053,-15.3219,-15.3212,-15.3206,-15.3202,0,0,-15.1478,-15.1763,-15.1702,-15.1924,-15.2014,-15.1864,-15.2121,-15.219,-15.2334,-15.2398,-15.2275,-15.2623,-15.2675,-15.3011,-15.3131,-15.3196,-15.326,-15.3124,-15.3651,-15.3702,-15.3748,-15.3912,-15.3978,-15.3192,-15.3189,-15.3188,-15.3186,0,-15.1238,-15.1302,-15.156,-15.163,-15.1731,-15.172,-15.1782,-15.1855,-15.1867,-15.2138,-15.2006,-15.2166,-15.2448,-15.2518,-15.259,-15.3084,-15.2973,-15.3134,-15.341,-15.3596,-15.3654,-15.3704,-15.3878,-15.3941,-15.3172,-15.3173,-15.3173,0,-15.077,-15.0827,-15.0949,-15.115,-15.1214,-15.1404,-15.1167,-15.1378,-15.1516,-15.1336,-15.1607,-15.1634,-15.1725,-15.2049,-15.2193,-15.2084,-15.2713,-15.2509,-15.2544,-15.2558,-15.2736,-15.2806,-15.2868,-15.2051,-15.2047,-15.2044,0,0,-15.0567,-15.0753,-15.0794,-15.1096,-15.1146,-15.1134,-15.1231,-15.1181,-15.127,-15.1306,-15.1338,-15.1426,-15.1586,-15.1695,-15.1844,-15.2205,-15.2217,-15.2373,-15.2426,-15.2469,-15.2507,-15.2696,-15.2765,-15.203,-15.2029,-15.2029,0,0,-15.0468,-15.053,-15.0454,-15.0802,-15.0893,-15.095,-15.1134,-15.1041,-15.1174,-15.1142,-15.1064,-15.1084,-15.1385,-15.1417,-15.1231,-15.1764,-15.1547,-15.1591,-15.1733,-15.1799,-15.1851,-15.1837,-15.0992,0,0,0,0,0,-15.0208,-15.0522,-15.0453,-15.0507,-15.076,-15.0989,-15.102,-15.0965,-15.0813,-15.0959,-15.0971,-15.0847,-15.13,-15.1133,-15.1185,-15.1393,-15.1847,-15.1879,-15.191,-15.2178,-15.2248,-15.2306,0,0,0,0,0,0,-15.0229,-15.0296,-15.0444,-15.0517,-15.0573,-15.0977,-15.0706,-15.07,-15.0795,-15.0768,-15.0848,-15.0849,-15.0803,-15.1102,-15.115,-15.1349,-15.0975,-15.1859,-15.1887,-15.1912,-15.2202,-15.2259,-15.2308,0,0,0,0,0,-15.0245,-15.0298,-15.0719,-15.0512,-15.0561,-15.0562,-15.0694,-15.0686,-15.0759,-15.0778,-15.0775,-15.0709,-15.0811,-15.0847,-15.1131,-15.1328,-15.0942,-15.096,-15.1877,-15.1899,-15.1918,-15.223,0,0,0,0,0,0,-15.0257,-15.0291,-15.0727,-15.074,-15.039,-15.0538,-15.056,-15.0676,-15.0761,-15.0762,-15.0633,-15.061,-15.082,-15.0846,-15.0875,-15.1325,-15.0914,-15.0933,-15.0944,-15.1894,-15.1911,-15.1926,0,0,0,0,0,0,-15.0262,-15.0304,-15.0734,-15.0583,-15.0578,-15.0516,-15.0536,-15.0768,-15.0764,-15.061,-15.0594,-15.0622,-15.0775,-15.0848,-15.0869,-15.1233,-15.0893,-15.0911,-15.0923,-15.0931,-15.1908,-15.1921,0,0,0,0,0,0,-15.0278,-15.0314,-15.0579,-15.0576,-15.057,-15.0707,-15.0719,-15.098,-15.0639,-15.0608,-15.0607,-15.0592,-15.078,-15.08,-15.0866,-15.1222,-15.123,-15.0894,-15.0906,-15.0915,-15.092,0,0,0,0,0,0,0,-15.0292,-15.007,-15.0654,-15.057,-15.0564,-15.0856,-15.086,-15.0863,-15.0636,-15.0623,-15.061,-15.0598,-15.0793,-15.0812,-15.0832,-15.1213,0,0,-15.0892,-15.0901,0,0,0,0,0,0,0,0,-15.0054,-15.0066,-15.0654,-15.0657,-15.0659,-15.0857,-15.086,-15.0862,-15.0634,-15.0623,-15.0613,-15.0603,-15.0798,-15.0813,-15.0829,0,0,0,0,0,0,0,0,0,0,0,0,0,0,0,-15.0654,-15.0657,0,-15.0857,-15.086,-15.0862,-15.0632,-15.0624,-15.0615,-15.0607,-15.0802,-15.0815,-15.0828,0,0,0,0,0,0,0,0,0,0,0,0,0,0,0,0,0,0,0,0,0,0,0,0,0,0,0,0,0,0,0,0,0,0,0,0,0,0,0,0,0,0,0,0,0,0,0,0,0,0,0,0,0,0,0,0,0,0,0,0,0,0,0,0,0,0,0,0,0]}]]]